Location: A�t �Alizem
(31.2076°N, 8.7872°W)
Time: 06:30:38
(UTC+00:00)

CZ-4B R/B - Pass Details

Date: 27 November 2020
Orbit: 390 x 458 km, 97.6° (Epoch: 16 January)

Event Time Altitude Azimuth Distance (km) Brightness Sun altitude
Rises 18:17:58 0° 8° (N) 2,307 4.7 -9.8°
Reaches altitude 10° 18:19:56 10° 6° (N) 1,454 3.7 -10.2°
Maximum altitude 18:23:01 69° 282° (WNW) 438 1.5 -10.9°
Drops below altitude 10° 18:26:09 10° 199° (SSW) 1,476 4.5 -11.5°
Sets 18:28:09 0° 197° (SSW) 2,347 5.6 -11.9°
